Regional Weather Roundup
Issued by NWS

Home | Current Version | Previous Version | Graphics & Text | Print | Product List | Glossary On
Versions: 1 2 3 4 5 6 7 8 9 10 11 12 13 14 15 16 17 18 19 20 21 22 23 24 25 26 27 28 29 30 31 32 33 34 35 36 37 38 39 40 41 42 43 44 45 46 47 48 49 50
000
ASUS45 KCYS 032010
RWRWY

WYOMING REGIONAL WEATHER ROUNDUP
NATIONAL WEATHER SERVICE CHEYENNE WY
200 PM MDT MON AUG 03 2015

NOTE:  "FAIR" INDICATES FEW OR NO CLOUDS BELOW 12,000 FEET
WITH NO SIGNIFICANT WEATHER AND/OR OBSTRUCTIONS TO VISIBILITY.

WYZ001-032100-
YELLOWSTONE NATIONAL PARK

CITY           SKY/WX    TMP DP  RH WIND       PRES   REMARKS
LK YELLOWSTONE   N/A     73  42  32 VRB3      30.23F
W YELLOWSTONE  NOT AVBL

$$
WYZ002>013-054>058-071-098>099-032100-
NORTHERN WYOMING

CITY           SKY/WX    TMP DP  RH WIND       PRES   REMARKS
JACKSON        SUNNY     73  41  31 SW9       30.14F
CODY           FAIR      79  50  36 N8        30.03F
GREYBULL       FAIR      87  43  21 SE8       29.94F
WORLAND        FAIR      89  42  19 NW6       29.96F
SHERIDAN       FAIR      89  52  28 E12       29.97F
BUFFALO        FAIR      82  52  35 S13       30.06S
GILLETTE       FAIR      84  54  35 SE8       30.02F
HULETT         FAIR      82  46  28 NE7       30.04F
NEWCASTLE      FAIR      82  52  34 MISG      30.03S

$$
WYZ014>020-022>026-101>103-032100-
CENTRAL WYOMING

CITY           SKY/WX    TMP DP  RH WIND       PRES   REMARKS
BIG PINEY      PTSUNNY   68  48  48 MISG      30.19F
PINEDALE       CLOUDY    70  41  35 SE10G17   30.21F
DUBOIS           N/A     77  36  22 E9G17     30.17
LANDER         FAIR      76  45  33 S22G31    30.08F
RIVERTON       FAIR      80  44  27 SW21G32   30.08F
CASPER         FAIR      85  49  28 N8        30.05F
DOUGLAS        FAIR      86  48  26 VRB3      30.04F

$$
WYZ021-027>030-104>119-032100-
SOUTHERN WYOMING

CITY           SKY/WX    TMP DP  RH WIND       PRES   REMARKS
EVANSTON       CLOUDY    58  53  84 N10       30.18S
KEMMERER       LGT RAIN  57  54  88 NE8       30.18F
FORT BRIDGER   CLOUDY    59  59 100 NW12      30.19S
ROCK SPRINGS   CLOUDY    67  52  58 S15G21    30.14F
DIXON          MOCLDY    78  43  28 SE13      30.18F
RAWLINS        FAIR      73  46  38 CALM      30.19F
SARATOGA       MOCLDY    72  45  37 N7        30.21R
LARAMIE        FAIR      80  35  19 SE22G30   30.18S
CHEYENNE       FAIR      86  37  17 S22G29    30.13S
TORRINGTON     FAIR      84  57  39 E6        30.00F
PINE BLUFFS    FAIR      86  36  16 S13G24    30.08S

$$



USA.gov is the U.S. government's official web portal to all federal, state and local government web resources and services.